DW7857 Weather Reports


Display with metric or nautical units.
time (UTC)temp
F
wind
direction
speed
MPH
gust
MPH
rain 1hr
in
rain 24hr
in
rain mn
in
humidity
%
barometer
mb
20260506184504 56 90 1.0 2.0 0.00 0.00 0.00 52 1016.8
20260506183814 56 92 1.0 2.0 0.00 0.00 0.00 50 1016.8
20260506182703 56 71 1.0 2.0 0.00 0.00 0.00 50 1016.7
20260506182013 56 95 1.0 2.0 0.00 0.00 0.00 50 1016.5
20260506180903 56 47 2.0 3.0 0.00 0.00 0.00 49 1016.6
20260506180004 56 32 3.0 4.0 0.00 0.00 0.00 47 1016.5
20260506175613 57 61 3.0 3.0 0.00 0.00 0.00 48 1016.7
20260506174503 57 71 2.0 2.0 0.00 0.00 0.00 48 1016.4
20260506173603 57 83 2.0 4.0 0.00 0.00 0.00 48 1016.3
20260506172913 57 87 2.0 4.0 0.00 0.00 0.00 47 1016.4
20260506171803 58 72 2.0 3.0 0.00 0.00 0.00 46 1016.2
20260506170903 58 93 2.0 3.0 0.00 0.00 0.00 46 1016.3
20260506170003 58 65 2.0 3.0 0.00 0.00 0.00 46 1016.2
20260506165613 58 68 2.0 3.0 0.00 0.00 0.00 46 1016.1
20260506164714 58 101 2.0 4.0 0.00 0.00 0.00 45 1016.3
20260506163603 58 70 3.0 4.0 0.00 0.00 0.00 45 1016.3
20260506162703 58 88 3.0 5.0 0.00 0.00 0.00 46 1016.4
20260506161803 59 24 2.0 5.0 0.00 0.00 0.00 44 1016.2
20260506160903 59 62 2.0 4.0 0.00 0.00 0.00 43 1016.3
20260506160004 60 63 3.0 4.0 0.00 0.00 0.00 43 1016.1
20260506155403 60 63 2.0 3.0 0.00 0.00 0.00 44 1016.1
20260506154503 60 53 4.0 7.0 0.00 0.00 0.00 42 1016.4
20260506153603 61 74 2.0 5.0 0.00 0.00 0.00 40 1016.4
20260506152912 62 87 3.0 4.0 0.00 0.00 0.00 41 1016.5
20260506151803 62 31 4.0 8.0 0.00 0.00 0.00 42 1016.3
20260506150903 63 311 4.0 6.0 0.00 0.00 0.00 40 1016.4
20260506150214 63 290 4.0 8.0 0.00 0.00 0.00 41 1016.4
20260506145403 63 340 4.0 8.0 0.00 0.00 0.00 41 1016.4
20260506144713 63 106 3.0 4.0 0.00 0.00 0.00 42 1016.5
20260506143603 61 340 3.0 6.0 0.00 0.00 0.00 43 1016.7
20260506142703 60 357 3.0 4.0 0.00 0.00 0.00 44 1016.6
20260506141803 59 41 3.0 4.0 0.00 0.00 0.00 47 1016.9
20260506140903 59 343 3.0 4.0 0.00 0.00 0.00 45 1016.8
20260506140003 58 31 3.0 4.0 0.00 0.00 0.00 47 1016.9
20260506135403 58 11 3.0 4.0 0.00 0.00 0.00 47 1016.9
20260506134503 58 100 3.0 4.0 0.00 0.00 0.00 47 1016.8
20260506133603 58 36 3.0 5.0 0.00 0.00 0.00 47 1017.0
20260506132703 58 38 3.0 5.0 0.00 0.00 0.00 48 1017.3
20260506132013 58 352 3.0 6.0 0.00 0.00 0.00 49 1017.1
20260506130903 58 71 3.0 6.0 0.00 0.00 0.00 50 1017.1
20260506130004 58 1 4.0 6.0 0.00 0.00 0.00 50 1017.0
20260506125403 57 14 4.0 6.0 0.00 0.00 0.00 50 1017.0
20260506124503 57 91 3.0 5.0 0.00 0.00 0.00 50 1017.0
20260506123603 56 15 3.0 5.0 0.00 0.00 0.00 51 1017.1
20260506122913 56 41 4.0 6.0 0.00 0.00 0.00 51 1017.1
20260506121803 56 45 4.0 6.0 0.00 0.00 0.00 51 1017.0
20260506120903 55 27 4.0 5.0 0.00 0.00 0.00 51 1017.2
20260506120004 55 72 4.0 6.0 0.00 0.00 0.00 52 1017.0
20260506115613 55 97 4.0 6.0 0.00 0.00 0.00 52 1017.0
20260506114503 55 50 4.0 6.0 0.00 0.00 0.00 53 1017.1
20260506113603 54 61 4.0 5.0 0.00 0.00 0.00 60 1017.2
20260506112703 54 337 4.0 6.0 0.00 0.00 0.00 61 1017.3
20260506111803 54 345 4.0 6.0 0.00 0.00 0.00 61 1017.0
20260506110903 53 332 4.0 6.0 0.00 0.00 0.00 61 1017.2
20260506110003 53 39 5.0 7.0 0.00 0.00 0.00 61 1017.3
20260506105612 53 9 4.0 7.0 0.00 0.00 0.00 61 1017.2
20260506104714 54 7 3.0 4.0 0.00 0.00 0.00 62 1017.2
20260506103603 53 18 4.0 6.0 0.00 0.00 0.00 61 1017.2
20260506102913 53 30 4.0 6.0 0.00 0.00 0.00 63 1017.1
20260506101803 53 55 5.0 7.0 0.00 0.00 0.00 62 1017.3
20260506100903 52 79 4.0 5.0 0.00 0.00 0.00 62 1017.3
20260506100003 52 66 5.0 7.0 0.00 0.00 0.00 64 1017.3
20260506095403 52 48 5.0 7.0 0.00 0.00 0.00 64 1017.3
20260506094713 52 33 4.0 6.0 0.00 0.00 0.00 65 1017.2
20260506093603 51 72 6.0 7.0 0.00 0.00 0.00 68 1017.1
20260506092703 51 63 6.0 8.0 0.00 0.00 0.00 70 1017.2
20260506091803 51 38 6.0 8.0 0.00 0.00 0.00 72 1017.1
20260506090903 51 64 6.0 9.0 0.00 0.00 0.00 72 1017.0
20260506090003 50 76 6.0 9.0 0.00 0.00 0.00 72 1017.1
20260506085403 50 67 5.0 8.0 0.00 0.00 0.00 71 1017.1
20260506084503 50 53 5.0 8.0 0.00 0.00 0.00 71 1017.0
20260506083812 51 82 5.0 6.0 0.00 0.00 0.00 72 1016.9
20260506082703 50 66 6.0 8.0 0.00 0.00 0.00 72 1017.2
20260506081803 49 78 6.0 8.0 0.00 0.00 0.00 72 1017.1
20260506081112 49 59 6.0 8.0 0.00 0.00 0.00 72 1016.8
20260506072913 49 77 5.0 7.0 0.00 0.00 0.00 78 1016.5
20260506072013 49 25 5.0 6.0 0.00 0.00 0.00 79 1016.7
20260506070903 48 85 5.0 6.0 0.00 0.00 0.00 80 1016.8
20260506070213 48 93 5.0 6.0 0.00 0.00 0.00 80 1016.6
20260506061803 48 46 4.0 6.0 0.00 0.00 0.00 79 1016.6
20260506060903 49 58 4.0 5.0 0.00 0.00 0.00 79 1016.2
20260506060213 49 36 4.0 5.0 0.00 0.00 0.00 78 1016.5
20260506050903 49 59 5.0 7.0 0.00 0.00 0.00 80 1016.2
20260506050213 49 71 5.0 7.0 0.00 0.00 0.00 80 1016.2
20260506044503 49 74 3.0 4.0 0.00 0.00 0.00 80 1016.2
20260506043603 49 14 2.0 5.0 0.00 0.00 0.00 80 1016.1
20260506042912 49 48 3.0 5.0 0.00 0.00 0.00 80 1015.9
20260506041803 49 1 3.0 4.0 0.00 0.00 0.00 80 1015.9
20260506040903 49 40 3.0 4.0 0.00 0.00 0.00 80 1016.2
20260506040003 49 27 3.0 4.0 0.00 0.00 0.00 80 1015.9
20260506035614 49 30 3.0 4.0 0.00 0.00 0.00 80 1015.8
20260506034713 49 64 3.0 3.0 0.00 0.00 0.00 80 1015.7
20260506033603 49 81 2.0 3.0 0.00 0.00 0.00 80 1015.8
20260506032703 49 48 2.0 3.0 0.00 0.00 0.00 80 1015.7
20260506031803 49 87 2.0 3.0 0.00 0.00 0.00 80 1015.9
20260506030903 49 14 2.0 3.0 0.00 0.00 0.00 80 1016.1
20260506030003 49 62 2.0 3.0 0.00 0.00 0.00 80 1015.8
20260506025403 49 66 3.0 3.0 0.00 0.00 0.00 80 1015.9
20260506024503 49 42 2.0 3.0 0.00 0.00 0.00 79 1016.2
20260506023603 49 58 2.0 3.0 0.00 0.00 0.00 79 1016.0
20260506022703 49 42 2.0 3.0 0.00 0.00 0.00 78 1015.8
20260506021803 49 32 2.0 4.0 0.00 0.00 0.00 78 1016.1
20260506020903 49 22 3.0 4.0 0.00 0.00 0.00 77 1015.9
20260506020003 49 25 2.0 3.0 0.00 0.00 0.00 77 1015.9
20260506015613 49 37 3.0 3.0 0.00 0.00 0.00 76 1016.1